Location: Cisewo
(53.3833°N, 14.9000°E)
Time: 10:32:41
(UTC+00:00)

Cosmos 1943 - Pass Details

Date: 18 April 2021
Orbit: 834 x 849 km, 71.0° (Epoch: 14 May)

Event Time Altitude Azimuth Distance (km) Brightness Sun altitude
Rises 22:41:19 0° 324° (NW) 3,396 7.3 -25.3°
Reaches altitude 10° 22:43:52 10° 318° (NW) 2,458 6.3 -25.4°
Maximum altitude 22:49:05 40° 250° (WSW) 1,221 3.8 -25.4°
Enters shadow 22:49:10 40° 248° (WSW) 1,222 3.8 -25.4°
